Weather in Orumiyeh

Iran     37°32′46″N   45°03′20″E
temp.,
°C
wind,
m/s
gust,
m/s
humid.,
%
clouds,
%
prec.,
mm/h
press.,
hPa
HPBL,
m
19 may, wed
wed1901:30+15wsw44400 0.0 101242
04:30+14wsw33430 0.0 101322
07:30+15wsw33450 0.0 101332
10:30+22se11260 0.0 10121045
13:30+26ese23190 0.0 10102181
16:30+27se15210 0.0 10091975
19:30+23sw34340 0.0 100975
22:30+18wsw44350 0.0 101248
20 may, thu
thu2001:30+16wsw43370 0.0 101331
04:30+15wsw33380 0.0 101318
07:30+17w22410 0.0 101417
10:30+23ne22280 0.0 1014887
13:30+26ne45250 0.0 10132072
16:30+27e54250 0.0 10121791
19:30+24ese22370 0.0 101329
22:30+19wsw32340 0.0 101413
21 may, fri
fri2101:30+18wsw32310 0.0 101511
04:30+15w11350 0.0 101511
07:30+18w11410 0.0 101611
10:30+24ne21270 0.0 1015788
13:30+28ene33240 0.0 10132095
16:30+29ene32200 0.0 10112618
19:30+26ene33311 0.0 101046
22:30+19ne3343100 0.0 101547
22 may, sat
sat2201:30+17wsw335081 0.0 101526
04:30+15n11523 0.0 101311
07:30+18wnw11520 0.0 101311
10:30+23ene22355 0.0 1011888
13:30+26ene2229100 0.0 10091421
16:30+15w61081100 9.8 1012396
19:30+21w225794 2.6 100733
22:30+17w226252 2.6 101116
23 may, sun
sun2301:30+16nw11577 0.0 101011
04:30+15w225993 0.1 101011
07:30+17wsw116363 0.0 100912
10:30+21ene13450 0.0 1008754
13:30+27e57301 0.0 10051815
16:30+28sw79202 0.0 10031701
19:30+24s33340 0.0 100455
22:30+17sw44470 0.0 100946